Вернуться в каталог

FREGAT R/B

АктивенMEO
NORAD 43235·ROCKET BODY·🇷🇺 Russia

Запущен Mar 9, 2018 с Guiana Space Centre

Loading…

Ближайшие Пролёты (ближайшие 24 часа)

TLE

СвежийSource: Space-Track

Эпоха: Sep 14, 2026, 12:46 UTC

1 43235U 18024E   26257.53250388 -.00000024  00000-0  00000-0 0  9995
2 43235   0.0325 112.8091 0010625  12.5853 234.7058  5.21347969162216

Отслеживайте FREGAT R/B в реальном времени с AllMySat

Download on the App Store